When you browse on this site, cookies collect data to enhance your experience and personalize the content and advertising you see.
Visit our Privacy Policy to learn more. By continuing to use the site, you agree to this use of cookies and data.
  • Em Portugal
  • Lista de países
  • Para 7 dias
  • Temperatura da água
  • Mapas de satélite
  • Mapa do tempo
  • Widgets de tempo
  • user-avatar
    Iniciar Sessão

    Previsão horária em Haskovo

    Hoje, 19 Fevereiro, Terça-feira

    Tempo Temperatura Precipitação Vento Pressão Humidade
    00:00 +8°C° 0 mm 1 m/s 746 mmHg 61%
    01:00 +8°C° 0 mm 1 m/s 746 mmHg 64%
    02:00 +7°C° 0 mm 1 m/s 746 mmHg 67%
    03:00 +6°C° 0 mm 0 m/s 746 mmHg 69%
    04:00 +5°C° 0 mm 0 m/s 746 mmHg 71%
    05:00 +5°C° 0 mm 0 m/s 746 mmHg 73%
    06:00 +5°C° 0 mm 0 m/s 746 mmHg 74%
    07:00 +5°C° 0 mm 0 m/s 746 mmHg 75%
    08:00 +5°C° 0 mm 0 m/s 746 mmHg 76%
    09:00 +8°C° 0 mm 1 m/s 746 mmHg 69%
    10:00 +10°C° 0 mm 1 m/s 746 mmHg 62%
    11:00 +12°C° 0 mm 1 m/s 746 mmHg 55%
    12:00 +13°C° 0 mm 2 m/s 746 mmHg 51%
    13:00 +14°C° 0 mm 2 m/s 745 mmHg 47%
    14:00 +15°C° 0 mm 2 m/s 745 mmHg 42%
    15:00 +15°C° 0 mm 2 m/s 745 mmHg 44%
    16:00 +15°C° 0 mm 2 m/s 745 mmHg 47%
    17:00 +14°C° 0 mm 2 m/s 745 mmHg 49%
    18:00 +13°C° 0 mm 2 m/s 744 mmHg 54%
    19:00 +10°C° 0 mm 2 m/s 744 mmHg 59%
    20:00 +9°C° 0 mm 2 m/s 744 mmHg 64%
    21:00 +9°C° 0 mm 1 m/s 744 mmHg 67%
    22:00 +9°C° 0 mm 1 m/s 744 mmHg 69%
    23:00 +8°C° 0 mm 1 m/s 744 mmHg 72%

    Amanhã, 20 Fevereiro, Quarta-feira

    Tempo Temperatura Precipitação Vento Pressão Humidade
    00:00 +8°C° 0 mm 1 m/s 744 mmHg 73%
    01:00 +8°C° 0 mm 1 m/s 744 mmHg 75%
    02:00 +6°C° 0 mm 0 m/s 744 mmHg 77%
    03:00 +6°C° 0 mm 0 m/s 744 mmHg 78%
    04:00 +6°C° 0 mm 0 m/s 744 mmHg 79%
    05:00 +5°C° 0 mm 0 m/s 743 mmHg 80%
    06:00 +7°C° 0 mm 1 m/s 743 mmHg 79%
    07:00 +7°C° 0 mm 1 m/s 743 mmHg 78%
    08:00 +7°C° 0 mm 1 m/s 744 mmHg 76%
    09:00 +9°C° 0 mm 1 m/s 744 mmHg 67%
    10:00 +11°C° 0 mm 1 m/s 744 mmHg 58%
    11:00 +13°C° 0 mm 2 m/s 744 mmHg 49%
    12:00 +14°C° 0 mm 2 m/s 744 mmHg 44%
    13:00 +15°C° 0 mm 2 m/s 743 mmHg 40%
    14:00 +16°C° 0 mm 2 m/s 743 mmHg 35%
    15:00 +16°C° 0 mm 2 m/s 743 mmHg 36%
    16:00 +15°C° 0 mm 2 m/s 743 mmHg 37%
    17:00 +15°C° 0 mm 2 m/s 743 mmHg 38%
    18:00 +14°C° 0 mm 2 m/s 743 mmHg 41%
    19:00 +12°C° 0 mm 2 m/s 744 mmHg 43%
    20:00 +10°C° 0 mm 2 m/s 744 mmHg 46%
    21:00 +9°C° 0 mm 2 m/s 744 mmHg 49%
    22:00 +8°C° 0 mm 2 m/s 745 mmHg 52%
    23:00 +8°C° 0 mm 2 m/s 745 mmHg 56%

    Depois de amanhã, 21 Fevereiro, Quinta-feira

    Tempo Temperatura Precipitação Vento Pressão Humidade
    00:00 +7°C° 0 mm 2 m/s 745 mmHg 58%
    01:00 +7°C° 0 mm 2 m/s 745 mmHg 60%
    02:00 +7°C° 0 mm 2 m/s 745 mmHg 63%
    03:00 +6°C° 0 mm 2 m/s 745 mmHg 64%
    04:00 +6°C° 0 mm 2 m/s 746 mmHg 65%
    05:00 +5°C° 0 mm 2 m/s 746 mmHg 66%
    06:00 +5°C° 0 mm 2 m/s 746 mmHg 66%
    07:00 +5°C° 0 mm 2 m/s 746 mmHg 66%
    08:00 +5°C° 0 mm 2 m/s 747 mmHg 66%
    09:00 +7°C° 0 mm 2 m/s 747 mmHg 58%
    10:00 +9°C° 0 mm 3 m/s 747 mmHg 50%
    11:00 +11°C° 0 mm 3 m/s 748 mmHg 42%
    12:00 +12°C° 0 mm 3 m/s 747 mmHg 39%
    13:00 +12°C° 0 mm 3 m/s 747 mmHg 36%
    14:00 +13°C° 0 mm 3 m/s 747 mmHg 33%
    15:00 +14°C° 0 mm 2 m/s 747 mmHg 34%
    16:00 +14°C° 0 mm 2 m/s 747 mmHg 36%
    17:00 +13°C° 0 mm 1 m/s 747 mmHg 38%
    18:00 +12°C° 0 mm 1 m/s 747 mmHg 40%
    19:00 +11°C° 0 mm 1 m/s 747 mmHg 42%
    20:00 +9°C° 0 mm 1 m/s 747 mmHg 45%
    21:00 +9°C° 0 mm 1 m/s 747 mmHg 47%
    22:00 +9°C° 0 mm 1 m/s 747 mmHg 49%
    23:00 +7°C° 0 mm 0 m/s 747 mmHg 52%

    22 Fevereiro, Sexta-feira

    Tempo Temperatura Precipitação Vento Pressão Humidade
    00:00 +7°C° 0 mm 0 m/s 747 mmHg 53%
    01:00 +8°C° 0 mm 1 m/s 746 mmHg 54%
    02:00 +8°C° 0 mm 1 m/s 746 mmHg 56%
    03:00 +7°C° 0 mm 1 m/s 745 mmHg 58%
    04:00 +7°C° 0 mm 1 m/s 745 mmHg 59%
    05:00 +6°C° 0 mm 1 m/s 744 mmHg 61%
    06:00 +7°C° 0 mm 1 m/s 744 mmHg 62%
    07:00 +7°C° 0 mm 1 m/s 744 mmHg 63%
    08:00 +7°C° 0 mm 1 m/s 743 mmHg 64%
    09:00 +7°C° 0.1 mm 2 m/s 743 mmHg 62%
    10:00 +8°C° 0.1 mm 2 m/s 742 mmHg 60%
    11:00 +9°C° 0.1 mm 3 m/s 742 mmHg 58%
    12:00 +10°C° 0.1 mm 3 m/s 741 mmHg 56%
    13:00 +11°C° 0.1 mm 3 m/s 741 mmHg 54%
    14:00 +12°C° 0.1 mm 3 m/s 740 mmHg 52%
    15:00 +11°C° 0.2 mm 3 m/s 740 mmHg 56%
    16:00 +10°C° 0.2 mm 2 m/s 740 mmHg 61%
    17:00 +10°C° 0.2 mm 2 m/s 739 mmHg 65%
    18:00 +9°C° 0.5 mm 2 m/s 739 mmHg 73%
    19:00 +9°C° 0.5 mm 1 m/s 740 mmHg 80%
    20:00 +8°C° 0.5 mm 1 m/s 740 mmHg 87%
    21:00 +7°C° 1.3 mm 3 m/s 740 mmHg 87%
    22:00 +5°C° 1.3 mm 4 m/s 741 mmHg 87%
    23:00 +4°C° 1.3 mm 6 m/s 741 mmHg 87%

    23 Fevereiro, Sábado

    Tempo Temperatura Precipitação Vento Pressão Humidade
    00:00 +2°C° 0.9 mm 6 m/s 742 mmHg 86%
    01:00 -1°C° 0.9 mm 7 m/s 742 mmHg 85%
    02:00 -2°C° 0.9 mm 7 m/s 743 mmHg 84%
    03:00 -4°C° 0.4 mm 7 m/s 744 mmHg 85%
    04:00 -6°C° 0.4 mm 7 m/s 744 mmHg 86%
    05:00 -7°C° 0.4 mm 8 m/s 745 mmHg 87%
    06:00 -8°C° 0.5 mm 7 m/s 746 mmHg 85%
    07:00 -8°C° 0.5 mm 7 m/s 747 mmHg 82%
    08:00 -9°C° 0.5 mm 6 m/s 748 mmHg 80%
    09:00 -8°C° 0.1 mm 6 m/s 748 mmHg 74%
    10:00 -8°C° 0.1 mm 6 m/s 749 mmHg 68%
    11:00 -6°C° 0.1 mm 6 m/s 749 mmHg 62%
    12:00 -6°C° 0 mm 7 m/s 749 mmHg 60%
    13:00 -6°C° 0 mm 7 m/s 749 mmHg 58%
    14:00 -4°C° 0 mm 7 m/s 748 mmHg 57%
    15:00 -4°C° 0 mm 6 m/s 748 mmHg 57%
    16:00 -4°C° 0 mm 6 m/s 748 mmHg 58%
    17:00 -4°C° 0 mm 6 m/s 748 mmHg 59%
    18:00 -5°C° 0 mm 5 m/s 749 mmHg 62%
    19:00 -6°C° 0 mm 5 m/s 749 mmHg 65%
    20:00 -7°C° 0 mm 4 m/s 749 mmHg 68%
    21:00 -7°C° 0 mm 4 m/s 749 mmHg 69%
    22:00 -7°C° 0 mm 4 m/s 749 mmHg 70%
    23:00 -8°C° 0 mm 4 m/s 749 mmHg 71%

    24 Fevereiro, Domingo

    Tempo Temperatura Precipitação Vento Pressão Humidade
    00:00 -8°C° 0 mm 4 m/s 749 mmHg 71%
    01:00 -8°C° 0 mm 4 m/s 749 mmHg 72%
    02:00 -8°C° 0 mm 5 m/s 749 mmHg 72%
    03:00 -8°C° 0 mm 5 m/s 749 mmHg 72%
    04:00 -10°C° 0 mm 5 m/s 748 mmHg 72%
    05:00 -10°C° 0 mm 5 m/s 748 mmHg 72%
    06:00 -10°C° 0 mm 6 m/s 748 mmHg 70%
    07:00 -10°C° 0 mm 6 m/s 748 mmHg 69%
    08:00 -9°C° 0 mm 7 m/s 748 mmHg 68%
    09:00 -9°C° 0 mm 7 m/s 749 mmHg 64%
    10:00 -8°C° 0 mm 8 m/s 749 mmHg 60%
    11:00 -7°C° 0 mm 8 m/s 749 mmHg 56%
    12:00 -6°C° 0 mm 9 m/s 748 mmHg 54%
    13:00 -5°C° 0 mm 9 m/s 748 mmHg 53%
    14:00 -5°C° 0 mm 9 m/s 748 mmHg 51%
    15:00 -5°C° 0 mm 9 m/s 748 mmHg 52%
    16:00 -5°C° 0 mm 9 m/s 747 mmHg 53%
    17:00 -6°C° 0 mm 8 m/s 747 mmHg 54%
    18:00 -6°C° 0 mm 8 m/s 748 mmHg 57%
    19:00 -7°C° 0 mm 7 m/s 748 mmHg 61%
    20:00 -8°C° 0 mm 6 m/s 748 mmHg 64%
    21:00 -8°C° 0 mm 6 m/s 748 mmHg 65%
    22:00 -8°C° 0 mm 6 m/s 748 mmHg 66%
    23:00 -8°C° 0 mm 6 m/s 748 mmHg 67%
    Mostrar mais